This is the latest recevied weather packets stored in our database for station/object DG1JLA-3. If no packets are shown the sender has not sent any weather packets the latest 1 day(s).
| Time | Temp. | Humidity | Pressure | Rain* | Wind** | Luminosity | Snow |
|---|---|---|---|---|---|---|---|
| 1778079287 | 18.89° C | 63% | 1007.6 hPa | 0 mm | - | - | - |
| 1778078987 | 18.89° C | 62% | 1007.7 hPa | 0 mm | - | - | - |
| 1778078687 | 18.89° C | 60% | 1007.6 hPa | 0 mm | - | - | - |
| 1778078387 | 18.89° C | 62% | 1007.5 hPa | 0 mm | - | - | - |
| 1778078087 | 18.89° C | 63% | 1007.6 hPa | 0 mm | - | - | - |
| 1778077487 | 18.89° C | 63% | 1007.5 hPa | 0 mm | - | - | - |
| 1778077187 | 18.89° C | 63% | 1007.5 hPa | 0 mm | - | - | - |
| 1778076887 | 18.89° C | 64% | 1007.6 hPa | 0 mm | - | - | - |
| 1778076587 | 18.89° C | 64% | 1007.7 hPa | 0 mm | - | - | - |
| 1778076287 | 18.89° C | 62% | 1007.7 hPa | 0 mm | - | - | - |
| 1778075987 | 18.89° C | 64% | 1007.7 hPa | 0 mm | - | - | - |
| 1778075687 | 18.89° C | 63% | 1007.7 hPa | 0 mm | - | - | - |
| 1778075087 | 18.89° C | 61% | 1007.8 hPa | 0 mm | - | - | - |
| 1778074787 | 18.89° C | 61% | 1007.7 hPa | 0 mm | - | - | - |
| 1778074487 | 18.89° C | 65% | 1007.8 hPa | 0 mm | - | - | - |
| 1778074187 | 18.89° C | 63% | 1007.7 hPa | 0 mm | - | - | - |
| 1778073587 | 18.89° C | 61% | 1007.7 hPa | 0 mm | - | - | - |
| 1778073287 | 19.44° C | 62% | 1007.9 hPa | 0 mm | - | - | - |
| 1778072387 | 18.89° C | 64% | 1007.9 hPa | 0 mm | - | - | - |
| 1778071787 | 19.44° C | 64% | 1007.8 hPa | 0 mm | - | - | - |
| 1778071487 | 18.89° C | 63% | 1007.8 hPa | 0 mm | - | - | - |
| 1778071187 | 18.89° C | 63% | 1008 hPa | 0 mm | - | - | - |
| 1778070887 | 19.44° C | 62% | 1008 hPa | 0 mm | - | - | - |
| 1778070587 | 19.44° C | 62% | 1008.2 hPa | 0 mm | - | - | - |
| 1778069087 | 18.89° C | 66% | 1008.1 hPa | 0 mm | - | - | - |
* Rain latest hour (hover to see other rain measurements)
** Current wind speed in m/s (hover to see current wind gust speed)